TimeEDT,TemperatureF,Dew PointF,Humidity,Sea Level PressureIn,VisibilityMPH,Wind Direction,Wind SpeedMPH,Gust SpeedMPH,PrecipitationIn,Events,Conditions,WindDirDegrees,DateUTC
12:53 AM,63.0,57.9,84,29.90,10.0,Calm,Calm,-,0.01,,Overcast,0,2013-05-10 04:53:00
2:43 AM,60.8,59.0,94,29.90,3.0,South,4.6,-,0.20,Rain,Rain,190,2013-05-10 06:43:00
2:53 AM,61.0,57.9,90,29.87,5.0,South,6.9,-,0.21,Rain,Light Rain,170,2013-05-10 06:53:00
3:53 AM,61.0,57.9,90,29.83,9.0,SSE,13.8,-,0.00,,Overcast,160,2013-05-10 07:53:00
4:53 AM,60.1,57.0,90,29.83,10.0,SSW,10.4,-,N/A,,Partly Cloudy,200,2013-05-10 08:53:00
5:53 AM,60.1,57.0,90,29.81,10.0,SSW,11.5,-,N/A,,Clear,200,2013-05-10 09:53:00
6:53 AM,60.1,57.0,90,29.81,9.0,South,11.5,-,N/A,,Clear,190,2013-05-10 10:53:00
7:53 AM,62.1,59.0,90,29.82,8.0,South,12.7,-,N/A,,Clear,190,2013-05-10 11:53:00
8:53 AM,64.0,60.1,87,29.82,9.0,SSW,11.5,-,N/A,,Clear,210,2013-05-10 12:53:00
9:53 AM,66.0,61.0,84,29.82,10.0,SSW,13.8,21.9,N/A,,Partly Cloudy,210,2013-05-10 13:53:00
10:53 AM,69.1,61.0,75,29.81,10.0,SSW,16.1,-,N/A,,Clear,210,2013-05-10 14:53:00
11:53 AM,69.1,60.1,73,29.82,10.0,SSW,12.7,19.6,0.01,,Mostly Cloudy,210,2013-05-10 15:53:00
1:53 PM,70.0,61.0,73,29.80,10.0,SW,17.3,20.7,N/A,,Mostly Cloudy,220,2013-05-10 17:53:00
2:53 PM,68.0,62.1,81,29.79,8.0,SW,12.7,-,0.00,Rain,Light Rain,220,2013-05-10 18:53:00
3:53 PM,66.0,62.1,87,29.79,4.0,SSW,11.5,-,0.02,Rain,Light Rain,210,2013-05-10 19:53:00
4:53 PM,63.0,59.0,87,29.76,10.0,South,13.8,-,0.00,Rain,Light Rain,190,2013-05-10 20:53:00
5:53 PM,63.0,60.1,90,29.76,3.0,SW,6.9,-,0.05,Rain,Rain,230,2013-05-10 21:53:00
6:53 PM,64.9,61.0,87,29.75,10.0,SW,11.5,-,0.00,,Overcast,220,2013-05-10 22:53:00
7:53 PM,64.9,61.0,87,29.74,10.0,SW,11.5,-,N/A,,Mostly Cloudy,220,2013-05-10 23:53:00
8:53 PM,64.0,61.0,90,29.76,5.0,WSW,8.1,18.4,0.02,Rain,Light Rain,250,2013-05-11 00:53:00
9:10 PM,60.8,55.4,82,29.79,10.0,North,11.5,26.5,0.00,,Overcast,350,2013-05-11 01:10:00
9:21 PM,60.8,55.4,82,29.79,10.0,North,10.4,-,0.00,,Overcast,350,2013-05-11 01:21:00
9:53 PM,57.9,53.1,84,29.80,10.0,NNW,9.2,-,0.00,,Mostly Cloudy,330,2013-05-11 01:53:00
10:51 PM,53.6,48.2,82,29.84,10.0,NNW,10.4,-,N/A,,Overcast,330,2013-05-11 02:51:00
10:53 PM,53.1,48.9,86,29.82,10.0,NNW,11.5,-,N/A,,Overcast,330,2013-05-11 02:53:00
11:48 PM,51.8,46.4,82,29.85,10.0,NNW,10.4,-,N/A,,Overcast,340,2013-05-11 03:48:00
11:53 PM,51.1,46.0,83,29.84,10.0,NNW,11.5,-,N/A,,Overcast,340,2013-05-11 03:53:00